IQ8VX-3 Weather Reports


time (UTC)temp
F
wind
direction
speed
knots
gust
knots
rain 1hr
in
rain 24hr
in
rain mn
in
humidity
%
barometer
mb
20260506043620 61 0.0 0.0 0.00 0.00 0.00 93 1696.1
20260506041619 61 0.0 0.0 0.00 0.00 0.00 93 1594.9
20260506035619 61 0.0 0.0 0.00 0.00 0.00 94 1438.9
20260506033619 60 0.0 0.0 0.00 0.00 0.00 95 1391.2
20260506031618 60 0.0 0.0 0.00 0.00 0.00 95 1344.1
20260506025618 61 0.0 0.0 0.00 0.00 0.00 96 1314.1
20260506023618 61 0.0 0.0 0.00 0.00 0.00 97 1146.3
20260506021617 61 0.0 0.0 0.00 0.00 0.00 98 1076.9
20260506015617 61 0.0 0.0 0.00 0.00 0.00 97 1156.0
20260506013617 61 0.0 0.0 0.00 0.00 0.00 98 1119.8
20260506011616 61 0.0 0.0 0.00 0.00 0.00 98 1238.7
20260506005616 61 0.0 0.0 0.00 0.00 0.00 97 1475.1
20260506003616 61 0.0 0.0 0.00 0.00 0.00 96 1661.9
20260506001615 61 0.0 0.0 0.00 0.00 0.00 96 1696.9
20260505235615 61 0.0 0.0 0.00 0.00 0.00 96 1696.6
20260505233615 61 0.0 0.0 0.00 0.00 0.00 95 1696.8
20260505231615 61 0.0 0.0 0.00 0.00 0.00 96 1696.8
20260505225614 61 0.0 0.0 0.00 0.00 0.00 96 1696.9
20260505223614 61 0.0 0.0 0.00 0.00 0.00 97 1697.1
20260505221614 61 0.0 0.0 0.00 0.00 0.00 97 1697.2
20260505215613 61 0.0 0.0 0.00 0.00 0.00 96 1696.9
20260505213613 61 0.0 0.0 0.00 0.00 0.00 96 1697.0
20260505211613 61 0.0 0.0 0.00 0.00 0.00 96 1697.0
20260505205612 61 0.0 0.0 0.00 0.00 0.00 96 1697.0
20260505203612 61 0.0 0.0 0.00 0.00 0.00 95 1697.1
20260505201612 61 0.0 0.0 0.00 0.00 0.00 95 1697.2
20260505195611 62 0.0 0.0 0.00 0.00 0.00 95 1697.5
20260505193611 62 0.0 0.0 0.00 0.00 0.00 94 1698.0
20260505191611 62 0.0 0.0 0.00 0.00 0.00 94 1698.0
20260505185610 62 0.0 0.0 0.00 0.00 0.00 94 1697.9
20260505183610 62 0.0 0.0 0.00 0.00 0.00 94 1697.8
20260505181610 62 0.0 0.0 0.00 0.00 0.00 93 1698.3
20260505175610 62 0.0 0.0 0.00 0.00 0.00 92 1698.6
20260505173609 63 0.0 0.0 0.00 0.00 0.00 90 1699.2
20260505171609 63 0.0 0.0 0.00 0.00 0.00 88 1700.1
20260505165609 65 0.0 0.0 0.00 0.00 0.00 85 1701.8
20260505163608 66 0.0 0.0 0.00 0.00 0.00 84 1703.6
20260505161710 65 0.0 0.0 0.00 0.00 0.00 84 1702.5
20260505151709 69 0.0 0.0 0.00 0.00 0.00 78 1707.9
20260505123707 71 0.0 0.0 0.00 0.00 0.00 72 1710.7
20260505121707 72 0.0 0.0 0.00 0.00 0.00 70 1712.4
20260505115706 72 0.0 0.0 0.00 0.00 0.00 72 1711.9
20260505113706 71 0.0 0.0 0.00 0.00 0.00 72 1711.0
20260505111706 72 0.0 0.0 0.00 0.00 0.00 71 1711.8
20260505101705 70 0.0 0.0 0.00 0.00 0.00 68 1709.5
20260505095704 70 0.0 0.0 0.00 0.00 0.00 69 1709.7
20260505093704 70 0.0 0.0 0.00 0.00 0.00 69 1710.1
20260505091704 69 0.0 0.0 0.00 0.00 0.00 69 1707.9
20260505085704 68 0.0 0.0 0.00 0.00 0.00 69 1707.0
20260505083703 68 0.0 0.0 0.00 0.00 0.00 72 1705.9
20260505081703 67 0.0 0.0 0.00 0.00 0.00 74 1704.7
20260505075703 68 0.0 0.0 0.00 0.00 0.00 75 1706.4
20260505073702 67 0.0 0.0 0.00 0.00 0.00 74 1705.7
20260505071702 66 0.0 0.0 0.00 0.00 0.00 80 1704.3
20260505065702 66 0.0 0.0 0.00 0.00 0.00 84 1703.4
20260505063701 64 0.0 0.0 0.00 0.00 0.00 87 1701.2
20260505061701 64 0.0 0.0 0.00 0.00 0.00 85 1700.9